Preston, MN

10:18 AM CDT on August 21, 2017 (GMT -0500)
Preston

Weather History for KFKA - October, 2013

Change the Weather History Date:

Sunday, October 6, 2013

  Actual Average (KRST) Record (KRST)
Temperature  
Mean Temperature 46 °F -  
Max Temperature 49 °F 59 °F 89 °F (1997)
Min Temperature 43 °F 38 °F 14 °F (1935)
Degree Days  
Heating Degree Days 19    
Moisture  
Dew Point 42 °F    
Average Humidity 84    
Maximum Humidity 97    
Minimum Humidity 69    
Precipitation  
Precipitation 0.04 in - - ()
Sea Level Pressure  
Sea Level Pressure 29.74 in    
Wind  
Wind Speed 3 mph (SW)    
Max Wind Speed 15 mph    
Max Gust Speed 25 mph    
Visibility 10 miles    
Events Rain    
Averages and records for this station are not official NWS values.
T = Trace of Precipitation, MM = Missing Value Source: NWS Daily Summary

Daily Weather History Graph

Daily Weather History Graph

Search for Another Location

Airport or City:

Trip Planner

Search our weather history database for the weather conditions in past years. The results will help you decide how hot, cold, wet, or windy it might be!

Date:

Astronomy

Oct. 06, 2013 Rise Set
Actual Time 7:12 AM CDT 6:40 PM CDT
Civil Twilight 6:43 AM CDT 7:08 PM CDT
Nautical Twilight 6:10 AM CDT 7:42 PM CDT
Astronomical Twilight 5:37 AM CDT 8:15 PM CDT
Moon 9:01 AM CDT (10/6) 7:35 PM CDT (10/6)
Length of Visible Light 12h 25m
Length of Day
11h 27m
Waxing Crescent, 3% of the Moon is Illuminated
Oct 6
Waxing Crescent
Oct 11
First Quarter
Oct 18
Full
Oct 26
Last Quarter
Nov 3
New

Hourly Weather History & Observations

Time (CDT) Temp. Windchill Dew Point Humidity Pressure Visibility Wind Dir Wind Speed Gust Speed Precip Events Conditions
12:16 AM 46.0 °F 44.8 °F 40.8 °F 82% 29.77 in 10.0 mi SSW 3.5 mph - N/A   Overcast
12:36 AM 46.0 °F 43.9 °F 41.0 °F 83% 29.78 in 10.0 mi SSW 4.6 mph - N/A   Overcast
12:56 AM 45.0 °F 43.5 °F 41.0 °F 86% 29.77 in 10.0 mi SSW 3.5 mph - N/A   Mostly Cloudy
1:16 AM 44.2 °F 42.7 °F 40.1 °F 85% 29.77 in 10.0 mi South 3.5 mph - N/A   Clear
1:36 AM 43.9 °F - 40.1 °F 87% 29.75 in 10.0 mi Calm Calm - N/A   Clear
1:56 AM 43.7 °F 41.1 °F 39.7 °F 86% 29.75 in 10.0 mi South 4.6 mph - N/A   Scattered Clouds
2:16 AM 44.2 °F 41.8 °F 40.3 °F 86% 29.75 in 10.0 mi SSW 4.6 mph - N/A   Overcast
2:37 AM 44.2 °F 42.7 °F 40.1 °F 85% 29.75 in 10.0 mi South 3.5 mph - N/A   Overcast
2:56 AM 44.1 °F - 40.5 °F 87% 29.74 in 10.0 mi Calm Calm - N/A   Overcast
3:16 AM 44.6 °F 43.1 °F 40.8 °F 87% 29.73 in 10.0 mi South 3.5 mph - N/A   Overcast
3:36 AM 44.6 °F 43.1 °F 41.2 °F 88% 29.72 in 10.0 mi SSW 3.5 mph - N/A   Overcast
3:57 AM 44.6 °F 43.1 °F 41.5 °F 89% 29.72 in 10.0 mi South 3.5 mph - N/A   Overcast
4:16 AM 45.0 °F 42.6 °F 41.7 °F 88% 29.72 in 10.0 mi South 4.6 mph - N/A   Overcast
4:37 AM 45.1 °F 43.7 °F 41.2 °F 86% 29.72 in 10.0 mi SSW 3.5 mph - N/A   Overcast
4:57 AM 45.0 °F 43.5 °F 41.5 °F 88% 29.73 in 10.0 mi SSW 3.5 mph - N/A   Overcast
5:16 AM 45.0 °F 43.5 °F 41.4 °F 87% 29.72 in 10.0 mi SW 3.5 mph - N/A   Overcast
5:37 AM 45.1 °F 43.7 °F 41.5 °F 87% 29.72 in 10.0 mi South 3.5 mph - N/A   Overcast
5:56 AM 45.0 °F 43.5 °F 41.9 °F 89% 29.72 in 10.0 mi SSW 3.5 mph - N/A   Overcast
6:16 AM 45.1 °F 43.7 °F 41.5 °F 87% 29.72 in 10.0 mi SW 3.5 mph - N/A   Overcast
6:35 AM 45.1 °F 43.7 °F 41.7 °F 88% 29.72 in 10.0 mi SSW 3.5 mph - N/A   Overcast
6:56 AM 45.0 °F - 41.7 °F 88% 29.72 in 10.0 mi Calm Calm - N/A   Overcast
7:16 AM 45.0 °F - 41.5 °F 88% 29.72 in 10.0 mi Calm Calm - N/A   Overcast
7:37 AM 45.1 °F - 41.2 °F 86% 29.72 in 10.0 mi Calm Calm - N/A   Overcast
7:57 AM 45.1 °F 42.8 °F 41.5 °F 87% 29.72 in 10.0 mi West 4.6 mph - N/A   Overcast
8:16 AM 45.3 °F 42.3 °F 41.4 °F 86% 29.72 in 10.0 mi West 5.8 mph - N/A   Overcast
8:37 AM 45.5 °F 43.2 °F 41.0 °F 84% 29.73 in 10.0 mi West 4.6 mph - N/A   Overcast
8:57 AM 45.7 °F 44.4 °F 40.6 °F 83% 29.73 in 10.0 mi West 3.5 mph - N/A   Overcast
9:16 AM 46.0 °F - 41.0 °F 83% 29.73 in 10.0 mi Calm Calm - N/A   Overcast
9:37 AM 46.0 °F - 40.1 °F 80% 29.72 in 10.0 mi Calm Calm - N/A   Overcast
9:56 AM 46.4 °F - 40.1 °F 79% 29.72 in 10.0 mi Calm Calm - N/A   Overcast
10:17 AM 46.4 °F - 40.3 °F 79% 29.72 in 10.0 mi Calm Calm - N/A   Overcast
10:37 AM 46.8 °F - 40.3 °F 78% 29.72 in 10.0 mi Calm Calm - N/A   Overcast
10:57 AM 47.3 °F - 40.5 °F 77% 29.73 in 10.0 mi Calm Calm - N/A   Overcast
11:16 AM 47.3 °F - 41.0 °F 79% 29.73 in 10.0 mi Calm Calm - N/A   Overcast
11:37 AM 47.3 °F - 41.0 °F 79% 29.74 in 10.0 mi SW 3.5 mph - N/A   Overcast
11:57 AM 47.5 °F - 41.4 °F 79% 29.74 in 10.0 mi Calm Calm - N/A   Overcast
12:17 PM 47.7 °F - 41.2 °F 78% 29.73 in 10.0 mi Calm Calm - N/A   Overcast
12:37 PM 47.7 °F - 41.4 °F 79% 29.73 in 10.0 mi Calm Calm - N/A   Overcast
12:57 PM 48.2 °F - 41.2 °F 77% 29.72 in 10.0 mi Calm Calm - N/A   Overcast
1:17 PM 48.2 °F - 38.8 °F 70% 29.72 in 10.0 mi West 3.5 mph - N/A   Overcast
1:36 PM 48.2 °F - 38.3 °F 69% 29.72 in 10.0 mi Calm Calm - N/A   Overcast
1:57 PM 47.5 °F - 40.5 °F 77% 29.72 in 5.0 mi West 3.5 mph - N/A Rain Light Rain
2:17 PM 47.7 °F - 41.0 °F 78% 29.71 in 10.0 mi Calm Calm - N/A   Overcast
2:37 PM 48.2 °F - 41.2 °F 77% 29.71 in 10.0 mi Calm Calm - N/A   Overcast
2:56 PM 48.2 °F - 41.0 °F 76% 29.71 in 10.0 mi Calm Calm - N/A   Overcast
3:17 PM 48.2 °F - 40.5 °F 75% 29.72 in 10.0 mi Calm Calm - N/A   Overcast
3:37 PM 48.2 °F - 41.7 °F 78% 29.72 in 10.0 mi West 3.5 mph - N/A   Overcast
3:57 PM 48.4 °F - 41.0 °F 76% 29.72 in 10.0 mi Calm Calm - N/A   Overcast
4:17 PM 48.6 °F - 41.5 °F 77% 29.72 in 10.0 mi Calm Calm - N/A   Overcast
4:36 PM 48.6 °F - 40.3 °F 73% 29.72 in 10.0 mi West 3.5 mph - N/A   Overcast
4:57 PM 49.1 °F - 42.6 °F 78% 29.72 in 10.0 mi SW 3.5 mph - N/A   Overcast
5:17 PM 48.6 °F - 41.7 °F 77% 29.73 in 10.0 mi WSW 3.5 mph - N/A   Overcast
5:36 PM 48.2 °F - 41.9 °F 79% 29.75 in 10.0 mi WSW 3.5 mph - N/A   Overcast
5:57 PM 48.2 °F - 42.8 °F 82% 29.75 in 10.0 mi SW 3.5 mph - N/A   Overcast
6:16 PM 47.7 °F - 43.0 °F 84% 29.75 in 10.0 mi WSW 4.6 mph - N/A   Overcast
6:36 PM 47.7 °F - 43.0 °F 84% 29.75 in 10.0 mi SSW 3.5 mph - N/A   Overcast
6:57 PM 47.3 °F - 43.2 °F 86% 29.76 in 10.0 mi SW 3.5 mph - N/A   Overcast
7:16 PM 47.3 °F - 43.5 °F 87% 29.76 in 10.0 mi SSW 4.6 mph - N/A   Overcast
7:37 PM 47.3 °F - 43.7 °F 87% 29.77 in 10.0 mi SSW 3.5 mph - N/A   Overcast
7:56 PM 47.3 °F - 43.7 °F 87% 29.77 in 10.0 mi South 5.8 mph - N/A   Overcast
8:17 PM 47.3 °F - 44.1 °F 88% 29.78 in 10.0 mi SSW 4.6 mph - N/A   Overcast
8:36 PM 47.3 °F - 44.1 °F 88% 29.78 in 10.0 mi SSW 4.6 mph - N/A   Overcast
8:57 PM 47.5 °F - 44.1 °F 88% 29.78 in 10.0 mi SW 5.8 mph - N/A   Overcast
9:17 PM 47.5 °F - 44.2 °F 89% 29.79 in 10.0 mi SW 5.8 mph - N/A   Overcast
9:36 PM 47.5 °F - 45.1 °F 92% 29.79 in 2.0 mi West 8.1 mph - 0.01 in Rain Light Rain
9:56 PM 47.7 °F - 46.4 °F 95% 29.79 in 4.0 mi WNW 4.6 mph - 0.01 in   Overcast
10:16 PM 48.2 °F - 47.3 °F 97% 29.79 in 7.0 mi NW 6.9 mph - N/A   Overcast
10:37 PM 48.7 °F - 47.7 °F 96% 29.80 in 7.0 mi NNW 11.5 mph - N/A Rain Light Rain
10:57 PM 48.4 °F - 47.1 °F 95% 29.80 in 5.0 mi NNW 11.5 mph 20.7 mph 0.01 in Rain Light Rain
11:17 PM 48.2 °F - 46.9 °F 95% 29.81 in 5.0 mi NW 11.5 mph 17.3 mph 0.02 in Rain Light Rain
11:36 PM 47.8 °F - 46.6 °F 95% 29.81 in 10.0 mi NNW 13.8 mph 21.9 mph 0.02 in   Overcast
11:56 PM 47.7 °F - 45.9 °F 93% 29.82 in 10.0 mi NNW 15.0 mph 25.3 mph 0.02 in   Overcast